CAL5117 KLAX-RCTP

Flight info

Callsign CAL5117
Flight time N/A
Altitude 28000
Route SUMMR2 MCKEY DCT LIBBO DCT BRINY DCT ALCOA DCT DACEM DCT 40N130W/N0496F300 44N140W 48N150W 52N160W/N0488F320 DCT RIZON DCT EXAMY DCT NIKLL/N0490F330 R220 NOGAL/N0478F340 R220 NODAN R217 SDE Y512 GTC Y45 KMC Y382 WAKIT Y282 POPPY Y75 IGBOD Y34 UPNIP/N0479F360 Y34 HKC Y50 IGMON A1 DRAKE DRAKE1A
Aircraft B77L/H-SDE1E2E3FGHIJ2J3J4J5M1RWXY/LB1D1

Departure

Time N/A
Airport Los Angeles International Airport (KLAX)

Arrival

Time 2026-05-07 03:39
Airport Taiwan Taoyuan International Airport (RCTP)
Time Latitude Longitude Altitude Speed Heading
2026-05-06 23:38 42.30523 147.36342 32986 ft 438 kts 231°
2026-05-06 23:38 42.28330 147.33477 32993 ft 439 kts 231°
2026-05-06 23:39 42.23941 147.27750 32995 ft 439 kts 231°
2026-05-06 23:39 42.19552 147.22033 32996 ft 439 kts 230°
2026-05-06 23:40 42.15163 147.16328 32995 ft 438 kts 230°
2026-05-06 23:40 42.10768 147.10627 32999 ft 438 kts 230°
2026-05-06 23:41 42.06369 147.04929 33135 ft 440 kts 230°
2026-05-06 23:41 42.04168 147.02085 33537 ft 438 kts 230°
2026-05-06 23:41 42.01945 146.99218 33981 ft 436 kts 231°
2026-05-06 23:42 41.98306 146.94524 34001 ft 435 kts 230°
2026-05-06 23:42 41.93952 146.88919 34001 ft 433 kts 231°
2026-05-06 23:43 41.89599 146.83321 34012 ft 433 kts 231°
2026-05-06 23:43 41.85251 146.77731 34006 ft 433 kts 230°
2026-05-06 23:44 41.80895 146.72142 34011 ft 433 kts 230°
2026-05-06 23:44 41.76537 146.66563 34015 ft 434 kts 230°
2026-05-06 23:45 41.72172 146.60987 34012 ft 434 kts 230°
2026-05-06 23:45 41.67801 146.55416 34015 ft 434 kts 230°
2026-05-06 23:46 41.63424 146.49848 34016 ft 434 kts 230°
2026-05-06 23:46 41.59046 146.44290 34020 ft 434 kts 230°
2026-05-06 23:47 41.54663 146.38736 34017 ft 434 kts 230°
2026-05-06 23:47 41.50279 146.33192 34019 ft 434 kts 230°
2026-05-06 23:48 41.45892 146.27654 34021 ft 435 kts 230°
2026-05-06 23:48 41.41494 146.22114 34022 ft 435 kts 230°
2026-05-06 23:49 41.37096 146.16584 34024 ft 435 kts 230°
2026-05-06 23:49 41.32695 146.11062 34027 ft 435 kts 230°
2026-05-06 23:50 41.28292 146.05548 34025 ft 435 kts 230°
2026-05-06 23:50 41.21678 145.97285 34023 ft 435 kts 230°
2026-05-06 23:51 41.17262 145.91782 34030 ft 435 kts 230°
2026-05-06 23:51 41.12846 145.86288 34029 ft 435 kts 229°
2026-05-06 23:52 41.08421 145.80795 34032 ft 436 kts 229°
2026-05-06 23:52 41.03995 145.75311 34031 ft 436 kts 229°
2026-05-06 23:53 40.99562 145.69830 34031 ft 436 kts 229°
2026-05-06 23:53 40.95130 145.64360 34033 ft 436 kts 229°
2026-05-06 23:54 40.90692 145.58893 34033 ft 436 kts 229°
2026-05-06 23:54 40.86223 145.53398 34036 ft 436 kts 229°
2026-05-06 23:55 40.81781 145.47947 34035 ft 436 kts 229°
2026-05-06 23:55 40.77339 145.42507 34034 ft 436 kts 229°
2026-05-06 23:56 40.72896 145.37076 34031 ft 436 kts 229°
2026-05-06 23:56 40.68448 145.31648 34035 ft 436 kts 229°
2026-05-06 23:57 40.64026 145.26263 34033 ft 436 kts 229°
2026-05-06 23:57 40.59570 145.20848 34038 ft 436 kts 229°
2026-05-06 23:58 40.55108 145.15436 34038 ft 436 kts 229°
2026-05-06 23:58 40.50643 145.10032 34035 ft 437 kts 229°
2026-05-06 23:59 40.46172 145.04627 34031 ft 437 kts 229°
2026-05-06 23:59 40.42022 144.98895 34040 ft 431 kts 236°
2026-05-07 00:00 40.38629 144.92476 34039 ft 426 kts 243°
2026-05-07 00:00 40.35558 144.85817 34035 ft 427 kts 243°
2026-05-07 00:01 40.32473 144.79147 34041 ft 428 kts 243°
2026-05-07 00:01 40.29369 144.72485 34036 ft 429 kts 243°
2026-05-07 00:02 40.26242 144.65807 34041 ft 430 kts 243°
2026-05-07 00:02 40.23113 144.59144 34040 ft 430 kts 243°
2026-05-07 00:03 40.19976 144.52478 34036 ft 430 kts 242°
2026-05-07 00:03 40.16835 144.45819 34032 ft 430 kts 242°
2026-05-07 00:04 40.13698 144.39182 34032 ft 428 kts 242°
2026-05-07 00:04 40.10573 144.32585 34035 ft 427 kts 242°
2026-05-07 00:05 40.07447 144.25996 34040 ft 426 kts 242°
2026-05-07 00:05 40.04321 144.19421 34040 ft 426 kts 242°
2026-05-07 00:06 40.01187 144.12846 34037 ft 427 kts 242°
2026-05-07 00:06 39.98048 144.06273 34037 ft 427 kts 242°
2026-05-07 00:07 39.94899 143.99692 34048 ft 428 kts 242°
2026-05-07 00:07 39.91739 143.93104 34036 ft 429 kts 242°
2026-05-07 00:08 39.88575 143.86520 34030 ft 429 kts 242°
2026-05-07 00:08 39.85402 143.79933 34034 ft 429 kts 242°
2026-05-07 00:09 39.82226 143.73352 34036 ft 430 kts 242°
2026-05-07 00:09 39.79043 143.66771 34031 ft 430 kts 242°
2026-05-07 00:10 39.75856 143.60196 34024 ft 430 kts 242°
2026-05-07 00:10 39.72667 143.53629 34030 ft 430 kts 242°
2026-05-07 00:11 39.69468 143.47056 34032 ft 430 kts 242°
2026-05-07 00:11 39.66268 143.40494 34029 ft 431 kts 241°
2026-05-07 00:12 39.63060 143.33929 34027 ft 431 kts 241°
2026-05-07 00:12 39.59843 143.27361 34028 ft 432 kts 241°
2026-05-07 00:13 39.56619 143.20792 34027 ft 432 kts 241°
2026-05-07 00:13 39.53385 143.14216 34030 ft 433 kts 241°
2026-05-07 00:14 39.50167 143.07687 34032 ft 433 kts 241°
2026-05-07 00:14 39.46917 143.01105 34031 ft 434 kts 241°
2026-05-07 00:15 39.43662 142.94528 34029 ft 434 kts 241°
2026-05-07 00:15 39.40400 142.87949 34030 ft 435 kts 241°
2026-05-07 00:16 39.37134 142.81377 34030 ft 435 kts 241°
2026-05-07 00:16 39.33859 142.74803 34026 ft 435 kts 241°
2026-05-07 00:17 39.30583 142.68238 34028 ft 435 kts 241°
2026-05-07 00:17 39.27305 142.61684 34026 ft 435 kts 241°
2026-05-07 00:18 39.24022 142.55136 34027 ft 434 kts 240°
2026-05-07 00:18 39.20295 142.48964 34034 ft 437 kts 234°
2026-05-07 00:19 39.16326 142.43021 34028 ft 437 kts 234°
2026-05-07 00:19 39.12372 142.37080 34025 ft 436 kts 234°
2026-05-07 00:20 39.08429 142.31151 34023 ft 436 kts 234°
2026-05-07 00:20 39.04490 142.25231 34027 ft 435 kts 234°
2026-05-07 00:21 39.00551 142.19324 34026 ft 435 kts 234°
2026-05-07 00:21 38.96613 142.13429 34027 ft 434 kts 234°
2026-05-07 00:22 38.92673 142.07543 34026 ft 434 kts 234°
2026-05-07 00:22 38.88734 142.01668 34026 ft 434 kts 234°
2026-05-07 00:23 38.84794 141.95803 34029 ft 434 kts 234°
2026-05-07 00:23 38.80845 141.89936 34024 ft 434 kts 234°
2026-05-07 00:24 38.77560 141.85064 34029 ft 435 kts 234°
2026-05-07 00:24 38.73600 141.79199 34024 ft 436 kts 234°
2026-05-07 00:25 38.69627 141.73328 34025 ft 436 kts 233°
2026-05-07 00:25 38.65648 141.67458 34043 ft 437 kts 233°
2026-05-07 00:26 38.61649 141.61569 34040 ft 439 kts 233°
2026-05-07 00:26 38.57643 141.55681 34022 ft 440 kts 233°
2026-05-07 00:27 38.53625 141.49788 34036 ft 440 kts 233°
2026-05-07 00:27 38.49598 141.43891 34035 ft 441 kts 233°
2026-05-07 00:28 38.45566 141.37997 34037 ft 441 kts 233°
2026-05-07 00:28 38.41532 141.32114 34026 ft 441 kts 233°
2026-05-07 00:29 38.37468 141.26196 34031 ft 440 kts 233°
2026-05-07 00:30 38.29404 141.14487 34014 ft 439 kts 233°
2026-05-07 00:30 38.25371 141.08647 34005 ft 439 kts 233°
2026-05-07 00:31 38.21336 141.02815 33996 ft 439 kts 233°
2026-05-07 00:31 38.17303 140.96974 33995 ft 438 kts 235°
2026-05-07 00:32 38.14373 140.90318 34000 ft 431 kts 251°
2026-05-07 00:32 38.12930 140.82976 33999 ft 428 kts 264°
2026-05-07 00:33 38.12276 140.75442 34005 ft 430 kts 264°
2026-05-07 00:33 38.11620 140.67862 34006 ft 432 kts 264°
2026-05-07 00:34 38.10923 140.60283 34018 ft 433 kts 264°
2026-05-07 00:34 38.10201 140.52688 34033 ft 433 kts 263°
2026-05-07 00:35 38.09471 140.45104 34040 ft 433 kts 263°
2026-05-07 00:35 38.08735 140.37512 34037 ft 433 kts 263°
2026-05-07 00:36 38.07995 140.29924 34035 ft 433 kts 263°
2026-05-07 00:36 38.07253 140.22349 34041 ft 432 kts 263°
2026-05-07 00:37 38.06506 140.14793 34047 ft 431 kts 263°
2026-05-07 00:37 38.05756 140.07253 34036 ft 430 kts 263°
2026-05-07 00:38 38.05003 139.99722 34037 ft 430 kts 263°
2026-05-07 00:38 38.04246 139.92213 34041 ft 429 kts 263°
2026-05-07 00:39 38.03484 139.84715 34043 ft 429 kts 263°
2026-05-07 00:39 38.02719 139.77215 34049 ft 428 kts 263°
2026-05-07 00:40 38.01952 139.69731 34036 ft 428 kts 263°
2026-05-07 00:40 38.01184 139.62273 34066 ft 425 kts 262°
2026-05-07 00:41 38.00409 139.54828 34046 ft 427 kts 262°
2026-05-07 00:41 37.99640 139.47475 34036 ft 428 kts 262°
2026-05-07 00:42 37.98851 139.39993 34026 ft 429 kts 262°
2026-05-07 00:42 37.98056 139.32498 34022 ft 429 kts 262°
2026-05-07 00:43 37.97256 139.25001 34027 ft 430 kts 262°
2026-05-07 00:43 37.96426 139.17504 34014 ft 429 kts 259°
2026-05-07 00:44 37.94543 139.10335 34023 ft 431 kts 248°
2026-05-07 00:44 37.91603 139.03710 34026 ft 433 kts 238°
2026-05-07 00:45 37.88116 138.97486 34016 ft 434 kts 237°
2026-05-07 00:45 37.84613 138.91272 34026 ft 433 kts 238°
2026-05-07 00:46 37.81139 138.85054 34028 ft 433 kts 238°
2026-05-07 00:46 37.77667 138.78822 34022 ft 434 kts 238°
2026-05-07 00:47 37.74192 138.72592 34030 ft 433 kts 238°
2026-05-07 00:47 37.70713 138.66370 34034 ft 434 kts 238°
2026-05-07 00:48 37.67233 138.60158 34035 ft 434 kts 238°
2026-05-07 00:48 37.63747 138.53948 34033 ft 434 kts 238°
2026-05-07 00:49 37.60260 138.47744 34032 ft 434 kts 238°
2026-05-07 00:49 37.56735 138.41569 34033 ft 434 kts 237°
2026-05-07 00:50 37.53189 138.35415 34033 ft 434 kts 237°
2026-05-07 00:50 37.49643 138.29265 34035 ft 434 kts 237°
2026-05-07 00:51 37.46090 138.23108 34035 ft 435 kts 237°
2026-05-07 00:51 37.42534 138.16953 34033 ft 435 kts 237°
2026-05-07 00:52 37.38970 138.10797 34031 ft 436 kts 237°
2026-05-07 00:52 37.35399 138.04642 34031 ft 436 kts 237°
2026-05-07 00:53 37.31819 137.98482 34031 ft 436 kts 237°
2026-05-07 00:53 37.28234 137.92325 34036 ft 437 kts 237°
2026-05-07 00:54 37.24674 137.86148 34033 ft 436 kts 238°
2026-05-07 00:54 37.21310 137.79813 34034 ft 436 kts 239°
2026-05-07 00:55 37.17880 137.73540 34031 ft 437 kts 237°
2026-05-07 00:55 37.14302 137.67362 34035 ft 437 kts 237°
2026-05-07 00:56 37.10726 137.61195 34030 ft 438 kts 237°
2026-05-07 00:56 37.07164 137.55021 34025 ft 438 kts 237°
2026-05-07 00:57 37.03594 137.48837 34039 ft 438 kts 237°
2026-05-07 00:57 36.99929 137.42730 34031 ft 439 kts 236°
2026-05-07 00:58 36.96295 137.36787 34035 ft 440 kts 236°
2026-05-07 00:58 36.92584 137.30704 34028 ft 440 kts 236°
2026-05-07 00:59 36.87014 137.21565 34031 ft 441 kts 236°
2026-05-07 01:00 36.83296 137.15476 34024 ft 441 kts 236°
2026-05-07 01:00 36.79658 137.09317 34029 ft 440 kts 238°
2026-05-07 01:01 36.76222 137.02992 34019 ft 441 kts 238°
2026-05-07 01:01 36.72721 136.96708 34025 ft 441 kts 237°
2026-05-07 01:02 36.69154 136.90477 34023 ft 442 kts 237°
2026-05-07 01:02 36.65575 136.84244 34025 ft 442 kts 237°
2026-05-07 01:03 36.62000 136.78009 34025 ft 443 kts 237°
2026-05-07 01:03 36.58389 136.71784 34021 ft 444 kts 236°
2026-05-07 01:04 36.55331 136.66664 34025 ft 444 kts 236°
2026-05-07 01:04 36.51647 136.60516 34023 ft 443 kts 236°
2026-05-07 01:05 36.47968 136.54363 34022 ft 443 kts 236°
2026-05-07 01:05 36.44289 136.48214 34016 ft 443 kts 236°
2026-05-07 01:06 36.40582 136.42099 34022 ft 444 kts 233°
2026-05-07 01:06 36.36264 136.36583 34024 ft 448 kts 225°
2026-05-07 01:07 36.31593 136.31460 33991 ft 449 kts 225°
2026-05-07 01:07 36.26926 136.26311 34002 ft 449 kts 225°
2026-05-07 01:08 36.22261 136.21144 34007 ft 450 kts 225°
2026-05-07 01:08 36.17587 136.15974 34018 ft 451 kts 225°
2026-05-07 01:09 36.12904 136.10804 34024 ft 452 kts 225°
2026-05-07 01:09 36.08206 136.05638 34032 ft 452 kts 225°
2026-05-07 01:10 36.03496 136.00472 34037 ft 453 kts 225°
2026-05-07 01:10 35.98785 135.95313 34033 ft 453 kts 225°
2026-05-07 01:11 35.94070 135.90160 34026 ft 452 kts 225°
2026-05-07 01:11 35.89360 135.85019 34032 ft 452 kts 225°
2026-05-07 01:12 35.84678 135.79917 34029 ft 452 kts 225°
2026-05-07 01:12 35.79961 135.74786 34028 ft 453 kts 225°
2026-05-07 01:13 35.75233 135.69651 34030 ft 453 kts 225°
2026-05-07 01:13 35.70495 135.64516 34031 ft 454 kts 225°
2026-05-07 01:14 35.65750 135.59380 34031 ft 455 kts 225°
2026-05-07 01:14 35.60999 135.54244 34031 ft 455 kts 225°
2026-05-07 01:15 35.56239 135.49108 34027 ft 455 kts 225°
2026-05-07 01:15 35.51477 135.43981 34031 ft 455 kts 225°
2026-05-07 01:16 35.46704 135.38852 34032 ft 456 kts 225°
2026-05-07 01:16 35.41925 135.33726 34034 ft 457 kts 224°
2026-05-07 01:17 35.37134 135.28593 34033 ft 458 kts 224°
2026-05-07 01:17 35.32335 135.23461 34032 ft 458 kts 224°
2026-05-07 01:18 35.27531 135.18333 34035 ft 458 kts 224°
2026-05-07 01:18 35.22725 135.13211 34038 ft 458 kts 224°
2026-05-07 01:19 35.17921 135.08100 34033 ft 458 kts 224°
2026-05-07 01:19 35.13112 135.02992 34034 ft 458 kts 224°
2026-05-07 01:20 35.08307 134.97897 34037 ft 458 kts 224°
2026-05-07 01:20 35.03549 134.92858 34032 ft 459 kts 224°
2026-05-07 01:21 34.98877 134.87590 34036 ft 457 kts 227°
2026-05-07 01:21 34.94315 134.82163 34037 ft 458 kts 227°
2026-05-07 01:22 34.89722 134.76774 34041 ft 459 kts 226°
2026-05-07 01:22 34.85098 134.71411 34055 ft 460 kts 226°
2026-05-07 01:23 34.80464 134.66042 34046 ft 460 kts 226°
2026-05-07 01:23 34.75620 134.60939 34050 ft 461 kts 222°
2026-05-07 01:24 34.70652 134.56013 34056 ft 461 kts 222°
2026-05-07 01:24 34.65687 134.51072 34055 ft 461 kts 222°
2026-05-07 01:25 34.60723 134.46116 34051 ft 462 kts 222°
2026-05-07 01:25 34.55759 134.41168 34050 ft 463 kts 222°
2026-05-07 01:26 34.50775 134.36211 34063 ft 463 kts 222°
2026-05-07 01:26 34.45786 134.31257 34060 ft 464 kts 222°
2026-05-07 01:27 34.40716 134.26393 34060 ft 466 kts 219°
2026-05-07 01:27 34.35467 134.21780 34050 ft 466 kts 218°
2026-05-07 01:28 34.30211 134.17176 34046 ft 467 kts 219°
2026-05-07 01:28 34.24961 134.12550 34046 ft 467 kts 219°
2026-05-07 01:29 34.19685 134.07944 34050 ft 468 kts 218°
2026-05-07 01:29 34.14393 134.03358 34053 ft 468 kts 218°
2026-05-07 01:30 34.09128 133.98798 34047 ft 469 kts 218°
2026-05-07 01:30 34.03785 133.94181 34050 ft 470 kts 217°
2026-05-07 01:31 33.98074 133.90323 34046 ft 473 kts 206°
2026-05-07 01:31 33.91976 133.87292 34044 ft 474 kts 205°
2026-05-07 01:32 33.85914 133.84164 34042 ft 473 kts 210°
2026-05-07 01:32 33.80666 133.79545 34045 ft 467 kts 227°
2026-05-07 01:33 33.76709 133.73426 34034 ft 463 kts 238°
2026-05-07 01:33 33.73124 133.66959 34275 ft 467 kts 237°
2026-05-07 01:33 33.71288 133.63758 34705 ft 463 kts 237°
2026-05-07 01:34 33.69465 133.60582 35125 ft 461 kts 237°
2026-05-07 01:34 33.67652 133.57421 35454 ft 460 kts 237°
2026-05-07 01:34 33.65835 133.54252 35713 ft 460 kts 237°
2026-05-07 01:34 33.64021 133.51091 35951 ft 461 kts 237°
2026-05-07 01:35 33.62197 133.47913 35972 ft 463 kts 237°
2026-05-07 01:35 33.58577 133.41621 36021 ft 460 kts 237°
2026-05-07 01:36 33.54950 133.35325 36033 ft 458 kts 237°
2026-05-07 01:36 33.51334 133.29063 36035 ft 456 kts 237°
2026-05-07 01:37 33.47722 133.22816 36041 ft 456 kts 237°
2026-05-07 01:37 33.44107 133.16576 36038 ft 456 kts 237°
2026-05-07 01:38 33.40482 133.10329 36045 ft 457 kts 237°
2026-05-07 01:38 33.36850 133.04082 36045 ft 458 kts 237°
2026-05-07 01:39 33.33206 132.97836 36053 ft 458 kts 237°
2026-05-07 01:39 33.29552 132.91583 36033 ft 459 kts 237°
2026-05-07 01:40 33.25887 132.85326 36039 ft 459 kts 237°
2026-05-07 01:40 33.22219 132.79073 36044 ft 459 kts 237°
2026-05-07 01:41 33.18550 132.72828 36041 ft 460 kts 237°
2026-05-07 01:41 33.14897 132.66609 36036 ft 460 kts 237°
2026-05-07 01:42 33.11232 132.60358 36037 ft 459 kts 237°
2026-05-07 01:42 33.07575 132.54131 36044 ft 458 kts 237°
2026-05-07 01:43 33.03912 132.47911 36038 ft 458 kts 237°
2026-05-07 01:43 33.00249 132.41702 36041 ft 458 kts 237°
2026-05-07 01:44 32.96466 132.35606 36042 ft 458 kts 232°
2026-05-07 01:44 32.92391 132.29781 36038 ft 457 kts 232°
2026-05-07 01:45 32.88310 132.23982 36037 ft 457 kts 232°
2026-05-07 01:45 32.84238 132.18177 36032 ft 456 kts 232°
2026-05-07 01:46 32.80180 132.12384 36036 ft 456 kts 232°
2026-05-07 01:46 32.76115 132.06590 36045 ft 456 kts 232°
2026-05-07 01:47 32.72081 132.00850 36043 ft 456 kts 232°
2026-05-07 01:47 32.68673 131.96008 36030 ft 456 kts 232°
2026-05-07 01:48 32.63948 131.89308 36037 ft 456 kts 232°
2026-05-07 01:48 32.59879 131.83544 36041 ft 456 kts 232°
2026-05-07 01:49 32.55807 131.77787 36031 ft 456 kts 232°
2026-05-07 01:49 32.51732 131.72037 36039 ft 455 kts 232°
2026-05-07 01:50 32.47655 131.66295 36040 ft 455 kts 232°
2026-05-07 01:50 32.44263 131.61526 36024 ft 455 kts 232°
2026-05-07 01:51 32.40187 131.55804 36045 ft 455 kts 232°
2026-05-07 01:51 32.36105 131.50082 36026 ft 455 kts 232°
2026-05-07 01:52 32.32023 131.44369 36026 ft 454 kts 232°
2026-05-07 01:52 32.27946 131.38671 36027 ft 454 kts 232°
2026-05-07 01:53 32.23860 131.32969 36035 ft 455 kts 232°
2026-05-07 01:53 32.19777 131.27280 36040 ft 453 kts 232°
2026-05-07 01:54 32.15701 131.21612 36037 ft 453 kts 232°
2026-05-07 01:54 32.11623 131.15950 36036 ft 453 kts 232°
2026-05-07 01:55 32.07549 131.10298 36039 ft 451 kts 232°
2026-05-07 01:55 32.03480 131.04665 36035 ft 451 kts 232°
2026-05-07 01:56 31.99416 130.99047 36037 ft 450 kts 232°
2026-05-07 01:56 31.95350 130.93443 36034 ft 450 kts 232°
2026-05-07 01:57 31.91285 130.87850 36046 ft 449 kts 232°
2026-05-07 01:57 31.87218 130.82263 36053 ft 450 kts 231°
2026-05-07 01:58 31.83108 130.76624 36048 ft 451 kts 231°
2026-05-07 01:58 31.79054 130.71073 36050 ft 451 kts 231°
2026-05-07 01:59 31.74956 130.65471 36047 ft 452 kts 231°
2026-05-07 01:59 31.70854 130.59869 36038 ft 452 kts 231°
2026-05-07 02:00 31.66911 130.54134 36031 ft 451 kts 234°
2026-05-07 02:00 31.63102 130.48279 36028 ft 451 kts 234°
2026-05-07 02:01 31.59284 130.42423 36026 ft 452 kts 234°
2026-05-07 02:01 31.55447 130.36582 36022 ft 453 kts 234°
2026-05-07 02:02 31.51594 130.30736 36019 ft 453 kts 234°
2026-05-07 02:02 31.47735 130.24893 36023 ft 453 kts 234°
2026-05-07 02:03 31.43873 130.19053 36023 ft 454 kts 234°
2026-05-07 02:03 31.40004 130.13211 36025 ft 454 kts 234°
2026-05-07 02:04 31.36130 130.07370 36022 ft 454 kts 234°
2026-05-07 02:04 31.32250 130.01531 36024 ft 454 kts 235°
2026-05-07 02:05 31.28371 129.95698 36019 ft 455 kts 235°
2026-05-07 02:05 31.24483 129.89862 36016 ft 455 kts 235°
2026-05-07 02:06 31.20591 129.84033 36020 ft 455 kts 235°
2026-05-07 02:06 31.16696 129.78210 36017 ft 455 kts 235°
2026-05-07 02:07 31.12802 129.72396 36018 ft 454 kts 235°
2026-05-07 02:07 31.06964 129.63699 36016 ft 453 kts 235°
2026-05-07 02:08 31.03076 129.57916 36016 ft 453 kts 235°
2026-05-07 02:08 30.99187 129.52141 36015 ft 452 kts 235°
2026-05-07 02:09 30.95305 129.46384 36014 ft 452 kts 234°
2026-05-07 02:09 30.91422 129.40635 36009 ft 451 kts 234°
2026-05-07 02:10 30.87537 129.34891 36012 ft 451 kts 234°
2026-05-07 02:10 30.83682 129.29203 36011 ft 451 kts 234°
2026-05-07 02:11 30.79800 129.23480 36013 ft 450 kts 234°
2026-05-07 02:11 30.75930 129.17751 36011 ft 450 kts 235°
2026-05-07 02:12 30.72138 129.11970 36012 ft 450 kts 236°
2026-05-07 02:12 30.68354 129.06180 36011 ft 450 kts 235°
2026-05-07 02:13 30.64561 129.00402 36013 ft 450 kts 235°
2026-05-07 02:13 30.60761 128.94639 36014 ft 450 kts 235°
2026-05-07 02:14 30.56928 128.88837 36011 ft 450 kts 235°
2026-05-07 02:14 30.53121 128.83082 36011 ft 449 kts 235°
2026-05-07 02:15 30.49313 128.77333 36011 ft 449 kts 235°
2026-05-07 02:15 30.45506 128.71594 36009 ft 449 kts 235°
2026-05-07 02:16 30.41720 128.65896 36012 ft 449 kts 235°
2026-05-07 02:16 30.37910 128.60169 36008 ft 449 kts 235°
2026-05-07 02:17 30.34094 128.54442 36010 ft 449 kts 235°
2026-05-07 02:17 30.30255 128.48689 36012 ft 449 kts 235°
2026-05-07 02:18 30.26436 128.42973 36011 ft 449 kts 235°
2026-05-07 02:18 30.22620 128.37270 36007 ft 449 kts 235°
2026-05-07 02:19 30.18797 128.31565 36008 ft 449 kts 235°
2026-05-07 02:19 30.14975 128.25870 36007 ft 449 kts 235°
2026-05-07 02:20 30.11148 128.20175 36006 ft 448 kts 235°
2026-05-07 02:20 30.07349 128.14529 36008 ft 448 kts 235°
2026-05-07 02:21 30.03517 128.08845 36006 ft 448 kts 235°
2026-05-07 02:21 29.99686 128.03168 36009 ft 448 kts 235°
2026-05-07 02:22 29.95850 127.97493 36008 ft 448 kts 235°
2026-05-07 02:22 29.92016 127.91829 36008 ft 448 kts 235°
2026-05-07 02:23 29.88180 127.86170 36005 ft 448 kts 235°
2026-05-07 02:23 29.84285 127.80568 36012 ft 448 kts 233°
2026-05-07 02:24 29.80202 127.75141 36011 ft 448 kts 232°
2026-05-07 02:24 29.76105 127.69725 36007 ft 448 kts 233°
2026-05-07 02:25 29.72036 127.64297 36010 ft 448 kts 233°
2026-05-07 02:25 29.67974 127.58865 36008 ft 448 kts 233°
2026-05-07 02:26 29.63911 127.53439 36001 ft 448 kts 233°
2026-05-07 02:26 29.59848 127.48023 36003 ft 448 kts 233°
2026-05-07 02:27 29.55858 127.42535 36002 ft 446 kts 235°
2026-05-07 02:27 29.52034 127.36922 36006 ft 446 kts 236°
2026-05-07 02:28 29.48210 127.31309 36000 ft 446 kts 236°
2026-05-07 02:28 29.44360 127.25718 36004 ft 447 kts 235°
2026-05-07 02:29 29.40496 127.20140 36005 ft 447 kts 235°
2026-05-07 02:29 29.36626 127.14566 36005 ft 447 kts 235°
2026-05-07 02:30 29.32755 127.08995 36006 ft 447 kts 235°
2026-05-07 02:30 29.28881 127.03427 36006 ft 447 kts 235°
2026-05-07 02:31 29.25003 126.97861 36003 ft 447 kts 235°
2026-05-07 02:31 29.21121 126.92297 36005 ft 447 kts 235°
2026-05-07 02:32 29.17238 126.86738 36005 ft 447 kts 235°
2026-05-07 02:32 29.13373 126.81215 36007 ft 447 kts 235°
2026-05-07 02:33 29.09483 126.75661 36006 ft 447 kts 235°
2026-05-07 02:33 29.05589 126.70110 36008 ft 447 kts 235°
2026-05-07 02:34 29.02326 126.65466 36005 ft 448 kts 235°
2026-05-07 02:34 28.98424 126.59918 36003 ft 448 kts 235°
2026-05-07 02:35 28.94482 126.54411 36006 ft 448 kts 234°
2026-05-07 02:35 28.90445 126.48986 36012 ft 448 kts 233°
2026-05-07 02:36 28.86398 126.43564 36015 ft 448 kts 234°
2026-05-07 02:36 28.82367 126.38144 36003 ft 448 kts 234°
2026-05-07 02:37 28.78334 126.32718 36009 ft 448 kts 234°
2026-05-07 02:37 28.74584 126.27681 36013 ft 448 kts 233°
2026-05-07 02:38 28.70546 126.22280 36009 ft 448 kts 233°
2026-05-07 02:38 28.66511 126.16868 36006 ft 448 kts 233°
2026-05-07 02:39 28.62488 126.11455 36009 ft 448 kts 234°
2026-05-07 02:39 28.58573 126.05953 36010 ft 447 kts 235°
2026-05-07 02:40 28.54714 126.00467 36009 ft 447 kts 235°
2026-05-07 02:40 28.50813 125.94950 36009 ft 447 kts 235°
2026-05-07 02:41 28.46902 125.89447 36011 ft 448 kts 235°
2026-05-07 02:41 28.42983 125.83948 36011 ft 448 kts 234°
2026-05-07 02:42 28.39063 125.78452 36009 ft 448 kts 234°
2026-05-07 02:42 28.35138 125.72958 36010 ft 448 kts 234°
2026-05-07 02:43 28.31210 125.67466 36010 ft 448 kts 234°
2026-05-07 02:43 28.27280 125.61978 36008 ft 448 kts 234°
2026-05-07 02:44 28.23347 125.56493 36003 ft 448 kts 234°
2026-05-07 02:44 28.19414 125.51014 36009 ft 448 kts 234°
2026-05-07 02:45 28.15481 125.45543 36007 ft 448 kts 234°
2026-05-07 02:45 28.11541 125.40070 36011 ft 448 kts 234°
2026-05-07 02:46 28.07600 125.34601 36009 ft 448 kts 234°
2026-05-07 02:46 28.03657 125.29137 36010 ft 448 kts 234°
2026-05-07 02:47 27.99709 125.23674 36013 ft 448 kts 234°
2026-05-07 02:47 27.95758 125.18213 36014 ft 448 kts 234°
2026-05-07 02:48 27.91807 125.12758 36009 ft 449 kts 234°
2026-05-07 02:48 27.87850 125.07303 36008 ft 449 kts 234°
2026-05-07 02:49 27.83916 125.01886 36007 ft 449 kts 234°
2026-05-07 02:49 27.79927 124.96401 36007 ft 449 kts 234°
2026-05-07 02:50 27.75959 124.90950 36011 ft 449 kts 234°
2026-05-07 02:50 27.72014 124.85539 36017 ft 450 kts 234°
2026-05-07 02:51 27.68036 124.80087 36015 ft 450 kts 234°
2026-05-07 02:51 27.64060 124.74646 36014 ft 450 kts 234°
2026-05-07 02:52 27.60073 124.69193 36002 ft 450 kts 234°
2026-05-07 02:52 27.56088 124.63737 36008 ft 451 kts 234°
2026-05-07 02:53 27.52103 124.58282 36004 ft 451 kts 234°
2026-05-07 02:53 27.48110 124.52825 36005 ft 451 kts 234°
2026-05-07 02:54 27.44118 124.47377 36003 ft 451 kts 234°
2026-05-07 02:54 27.40118 124.41924 36002 ft 452 kts 234°
2026-05-07 02:55 27.36115 124.36474 36001 ft 452 kts 234°
2026-05-07 02:55 27.32106 124.31023 36002 ft 452 kts 234°
2026-05-07 02:56 27.28093 124.25572 36001 ft 452 kts 234°
2026-05-07 02:56 27.24078 124.20127 36001 ft 453 kts 234°
2026-05-07 02:57 27.20059 124.14683 35996 ft 453 kts 234°
2026-05-07 02:57 27.16033 124.09235 35998 ft 453 kts 234°
2026-05-07 02:58 27.12008 124.03793 35996 ft 453 kts 234°
2026-05-07 02:58 27.07975 123.98358 35994 ft 454 kts 234°
2026-05-07 02:59 27.03901 123.92946 35993 ft 454 kts 234°
2026-05-07 02:59 26.99818 123.87544 35991 ft 454 kts 234°
2026-05-07 03:00 26.95731 123.82134 35993 ft 455 kts 234°
2026-05-07 03:00 26.91642 123.76723 35994 ft 455 kts 234°
2026-05-07 03:01 26.87553 123.71316 35996 ft 455 kts 234°
2026-05-07 03:01 26.83454 123.65904 35990 ft 455 kts 234°
2026-05-07 03:02 26.79356 123.60498 35990 ft 456 kts 234°
2026-05-07 03:02 26.75250 123.55090 35992 ft 456 kts 234°
2026-05-07 03:03 26.71139 123.49680 35988 ft 456 kts 234°
2026-05-07 03:03 26.67024 123.44272 35983 ft 456 kts 234°
2026-05-07 03:04 26.62908 123.38869 35989 ft 457 kts 234°
2026-05-07 03:04 26.58794 123.33469 35991 ft 457 kts 234°
2026-05-07 03:05 26.54699 123.28098 35983 ft 457 kts 233°
2026-05-07 03:05 26.50573 123.22692 35986 ft 457 kts 233°
2026-05-07 03:06 26.46443 123.17288 35983 ft 457 kts 233°
2026-05-07 03:06 26.42310 123.11887 35983 ft 458 kts 233°
2026-05-07 03:07 26.38171 123.06484 35980 ft 458 kts 233°
2026-05-07 03:07 26.34029 123.01082 35977 ft 458 kts 233°
2026-05-07 03:08 26.29878 122.95690 35978 ft 459 kts 233°
2026-05-07 03:08 26.25684 122.90262 35974 ft 459 kts 233°
2026-05-07 03:09 26.21523 122.84880 35501 ft 461 kts 233°
2026-05-07 03:09 26.19456 122.82207 34999 ft 459 kts 233°
2026-05-07 03:09 26.17356 122.79496 34485 ft 455 kts 233°
2026-05-07 03:10 26.15326 122.76876 33984 ft 451 kts 233°
2026-05-07 03:10 26.13283 122.74239 33403 ft 449 kts 232°
2026-05-07 03:10 26.11252 122.71619 32864 ft 445 kts 232°
2026-05-07 03:10 26.09238 122.69022 32351 ft 441 kts 232°
2026-05-07 03:11 26.07239 122.66447 31834 ft 438 kts 232°
2026-05-07 03:11 26.05257 122.63894 31340 ft 434 kts 232°
2026-05-07 03:11 26.03292 122.61363 30837 ft 431 kts 232°
2026-05-07 03:11 26.01337 122.58847 30356 ft 428 kts 232°
2026-05-07 03:12 25.99395 122.56349 29814 ft 426 kts 231°
2026-05-07 03:12 25.97462 122.53864 29267 ft 423 kts 231°
2026-05-07 03:12 25.95544 122.51401 28736 ft 420 kts 231°
2026-05-07 03:12 25.93642 122.48959 28241 ft 416 kts 231°
2026-05-07 03:13 25.91760 122.46537 27751 ft 413 kts 231°
2026-05-07 03:13 25.89892 122.44130 27276 ft 410 kts 231°
2026-05-07 03:13 25.88039 122.41743 26803 ft 407 kts 231°
2026-05-07 03:13 25.86198 122.39370 26320 ft 404 kts 231°
2026-05-07 03:14 25.84370 122.37017 25873 ft 402 kts 231°
2026-05-07 03:14 25.82574 122.34705 25410 ft 400 kts 231°
2026-05-07 03:14 25.78958 122.30055 24477 ft 397 kts 231°
2026-05-07 03:15 25.77156 122.27740 24020 ft 395 kts 231°
2026-05-07 03:15 25.75365 122.25440 23564 ft 394 kts 231°
2026-05-07 03:15 25.73574 122.23142 23036 ft 392 kts 231°
2026-05-07 03:15 25.71795 122.20861 22564 ft 390 kts 231°
2026-05-07 03:16 25.70027 122.18593 22112 ft 387 kts 231°
2026-05-07 03:16 25.68272 122.16344 21657 ft 384 kts 231°
2026-05-07 03:16 25.66553 122.14141 21286 ft 382 kts 231°
2026-05-07 03:16 25.64821 122.11924 21028 ft 379 kts 231°
2026-05-07 03:17 25.63103 122.09727 20802 ft 376 kts 231°
2026-05-07 03:17 25.61573 122.07425 20430 ft 370 kts 244°
2026-05-07 03:17 25.60708 122.04757 19998 ft 367 kts 255°
2026-05-07 03:17 25.60035 122.02021 19625 ft 368 kts 255°
2026-05-07 03:18 25.59368 121.99289 19355 ft 367 kts 255°
2026-05-07 03:18 25.58698 121.96571 19103 ft 365 kts 255°
2026-05-07 03:18 25.58023 121.93870 18844 ft 363 kts 255°
2026-05-07 03:18 25.57344 121.91182 18561 ft 362 kts 255°
2026-05-07 03:19 25.56662 121.88503 18283 ft 361 kts 255°
2026-05-07 03:19 25.55980 121.85835 17988 ft 359 kts 255°
2026-05-07 03:19 25.55300 121.83181 17708 ft 357 kts 255°
2026-05-07 03:19 25.54621 121.80539 17432 ft 356 kts 255°
2026-05-07 03:20 25.53946 121.77911 17164 ft 354 kts 255°
2026-05-07 03:20 25.53491 121.76142 16977 ft 353 kts 255°
2026-05-07 03:20 25.52819 121.73532 16713 ft 351 kts 255°
2026-05-07 03:20 25.52160 121.70970 16456 ft 350 kts 255°
2026-05-07 03:21 25.51270 121.67520 16109 ft 348 kts 255°
2026-05-07 03:21 25.50831 121.65814 15947 ft 347 kts 255°
2026-05-07 03:21 25.50170 121.63255 15698 ft 345 kts 255°
2026-05-07 03:21 25.49511 121.60704 15447 ft 344 kts 255°
2026-05-07 03:22 25.48814 121.58190 15169 ft 341 kts 249°
2026-05-07 03:22 25.47575 121.55952 14816 ft 344 kts 231°
2026-05-07 03:22 25.45985 121.53974 14553 ft 344 kts 230°
2026-05-07 03:22 25.44394 121.51998 14326 ft 342 kts 231°
2026-05-07 03:23 25.42874 121.50078 14121 ft 341 kts 231°
2026-05-07 03:23 25.41333 121.48110 13897 ft 339 kts 231°
2026-05-07 03:23 25.39793 121.46138 13666 ft 338 kts 231°
2026-05-07 03:23 25.38259 121.44176 13425 ft 337 kts 231°
2026-05-07 03:24 25.37028 121.42604 13234 ft 335 kts 231°
2026-05-07 03:24 25.35450 121.40589 13003 ft 333 kts 231°
2026-05-07 03:24 25.33933 121.38653 12802 ft 332 kts 231°
2026-05-07 03:24 25.32424 121.36728 12568 ft 331 kts 231°
2026-05-07 03:25 25.30921 121.34811 12328 ft 330 kts 231°
2026-05-07 03:25 25.29421 121.32898 12126 ft 329 kts 231°
2026-05-07 03:25 25.27929 121.30996 11907 ft 327 kts 231°
2026-05-07 03:25 25.26443 121.29101 11704 ft 326 kts 231°
2026-05-07 03:26 25.24960 121.27212 11494 ft 324 kts 231°
2026-05-07 03:26 25.23484 121.25333 11286 ft 323 kts 230°
2026-05-07 03:26 25.22012 121.23459 11078 ft 323 kts 230°
2026-05-07 03:26 25.20546 121.21592 10864 ft 322 kts 230°
2026-05-07 03:27 25.19082 121.19730 10667 ft 320 kts 230°
2026-05-07 03:27 25.17624 121.17877 10491 ft 319 kts 230°
2026-05-07 03:27 25.16173 121.16031 10300 ft 318 kts 230°
2026-05-07 03:27 25.14739 121.14209 10248 ft 311 kts 230°
2026-05-07 03:28 25.13332 121.12424 10204 ft 305 kts 230°
2026-05-07 03:28 25.11954 121.10676 10176 ft 297 kts 230°
2026-05-07 03:28 25.10622 121.08985 10078 ft 287 kts 230°
2026-05-07 03:28 25.09339 121.07356 9910 ft 277 kts 230°
2026-05-07 03:29 25.08086 121.05763 9584 ft 273 kts 230°
2026-05-07 03:29 25.06856 121.04199 9276 ft 268 kts 230°
2026-05-07 03:29 25.05645 121.02662 8962 ft 263 kts 230°
2026-05-07 03:29 25.04454 121.01150 8676 ft 259 kts 230°
2026-05-07 03:30 25.03280 120.99662 8374 ft 255 kts 230°
2026-05-07 03:30 25.02124 120.98196 8091 ft 252 kts 229°
2026-05-07 03:30 25.00985 120.96750 7789 ft 247 kts 229°
2026-05-07 03:30 24.99864 120.95330 7505 ft 243 kts 229°
2026-05-07 03:31 24.98748 120.93917 7244 ft 247 kts 229°
2026-05-07 03:31 24.97602 120.92465 6971 ft 254 kts 229°
2026-05-07 03:31 24.96288 120.91206 6650 ft 251 kts 206°
2026-05-07 03:31 24.94612 120.90806 6378 ft 249 kts 179°
2026-05-07 03:32 24.92945 120.91290 6093 ft 252 kts 154°
2026-05-07 03:32 24.91573 120.92543 5840 ft 265 kts 131°
2026-05-07 03:32 24.90752 120.94387 5555 ft 275 kts 100°
2026-05-07 03:32 24.90871 120.96436 5435 ft 262 kts 84°
2026-05-07 03:33 24.91045 120.98404 5165 ft 256 kts 90°
2026-05-07 03:33 24.91058 121.00324 4855 ft 252 kts 94°
2026-05-07 03:33 24.91024 121.02238 4548 ft 247 kts 88°
2026-05-07 03:33 24.91556 121.04011 4252 ft 240 kts 53°
2026-05-07 03:34 24.92657 121.05339 3992 ft 231 kts 46°
2026-05-07 03:34 24.93737 121.06637 3726 ft 229 kts 49°
2026-05-07 03:34 24.94778 121.07957 3399 ft 227 kts 49°
2026-05-07 03:34 24.95787 121.09242 3115 ft 222 kts 49°
2026-05-07 03:35 24.96784 121.10511 2834 ft 217 kts 49°
2026-05-07 03:35 24.97761 121.11753 2567 ft 209 kts 49°
2026-05-07 03:35 24.98684 121.12929 2291 ft 197 kts 49°
2026-05-07 03:35 24.99543 121.14022 2057 ft 181 kts 49°
2026-05-07 03:36 25.00338 121.15036 1814 ft 168 kts 47°
2026-05-07 03:36 25.01061 121.15956 1620 ft 151 kts 48°
2026-05-07 03:36 25.01720 121.16794 1432 ft 150 kts 47°
2026-05-07 03:36 25.02412 121.17676 1268 ft 153 kts 46°
2026-05-07 03:37 25.03107 121.18562 1067 ft 151 kts 46°
2026-05-07 03:37 25.03781 121.19423 857 ft 146 kts 45°
2026-05-07 03:37 25.04440 121.20260 657 ft 143 kts 45°
2026-05-07 03:37 25.05091 121.21085 473 ft 143 kts 46°
2026-05-07 03:38 25.05742 121.21917 298 ft 146 kts 45°
2026-05-07 03:38 25.06404 121.22767 108 ft 144 kts 46°
2026-05-07 03:38 25.06989 121.23501 102 ft 113 kts 49°
2026-05-07 03:38 25.07382 121.24001 99 ft 63 kts 49°
2026-05-07 03:39 25.07583 121.24186 100 ft 27 kts 24°
2026-05-07 03:39 25.07759 121.24253 104 ft 27 kts 20°
2026-05-07 03:39 25.07910 121.24352 106 ft 25 kts 48°
2026-05-07 03:39 25.08019 121.24469 106 ft 19 kts 15°
2026-05-07 03:40 25.08099 121.24419 106 ft 13 kts 320°
2026-05-07 03:40 25.08170 121.24351 107 ft 13 kts 320°
2026-05-07 03:40 25.08242 121.24284 107 ft 13 kts 320°
2026-05-07 03:40 25.08343 121.24187 108 ft 31 kts 319°
2026-05-07 03:41 25.08488 121.24050 106 ft 26 kts 319°
2026-05-07 03:41 25.08625 121.23920 108 ft 26 kts 319°
2026-05-07 03:41 25.08751 121.23804 108 ft 3 kts 338°
2026-05-07 03:41 25.08783 121.23825 107 ft 14 kts 40°
2026-05-07 03:42 25.08883 121.23949 108 ft 23 kts 49°
2026-05-07 03:42 25.08989 121.24084 108 ft 23 kts 49°
2026-05-07 03:42 25.09093 121.24216 108 ft 23 kts 49°
2026-05-07 03:42 25.09133 121.24298 108 ft 5 kts 115°
2026-05-07 03:43 25.09104 121.24326 107 ft 6 kts 139°
2026-05-07 03:43 25.09074 121.24355 107 ft 6 kts 139°
2026-05-07 03:43 25.09062 121.24368 105 ft 0 kts 139°